QPF
0.00 0.00 0.00 0.01 0.01 0.01 0.01 0.04 0.04 0.04 0.10 0.05 0.00 0.00 0.00 0.00 0.00 0.00 0.00 0.00 0.00 0.00 0.00 0.00 0.01 0.01 0.00 0.00 0.01 0.01 0.01 0.00 0.00 0.00 0.00 0.00 0.00 0.00 0.00 0.00 0.00 0.00 0.00
0.00 0.00 0.00 0.00 0.00 0.02 0.02 0.03 0.02 0.02 0.03 0.03 0.00 0.00 0.00 0.00 0.00 0.00 0.00 0.00 0.00 0.00 0.00 0.00 0.00 0.00 0.00 0.00 0.00 0.01 0.02 0.00 0.00 0.00 0.00 0.00 0.00 0.00 0.00 0.00 0.00 0.00 0.00
0.00 0.00 0.00 0.00 0.00 0.01 0.03 0.02 0.02 0.03 0.03 0.01 0.00 0.00 0.00 0.00 0.00 0.00 0.00 0.00 0.00 0.00 0.00 0.00 0.00 0.00 0.00 0.00 0.00 0.01 0.01 0.00 0.00 0.00 0.00 0.00 0.00 0.00 0.00 0.00 0.00 0.00 0.00
0.00 0.00 0.00 0.00 0.00 0.01 0.06 0.05 0.02 0.02 0.02 0.02 0.00 0.00 0.00 0.00 0.00 0.00 0.00 0.00 0.00 0.00 0.00 0.00 0.01 0.01 0.00 0.00 0.00 0.01 0.02 0.00 0.00 0.00 0.00 0.00 0.00 0.00 0.00 0.00 0.00 0.00 0.00
0.00 0.00 0.00 0.00 0.00 0.00 0.03 0.06 0.04 0.02 0.02 0.01 0.00 0.00 0.00 0.00 0.00 0.00 0.00 0.00 0.00 0.00 0.00 0.00 0.01 0.01 0.00 0.00 0.00 0.01 0.02 0.00 0.00 0.00 0.00 0.00 0.00 0.00 0.00 0.00 0.00 0.00 0.00
0.00 0.00 0.00 0.00 0.00 0.00 0.01 0.05 0.04 0.02 0.02 0.01 0.00 0.00 0.00 0.00 0.00 0.00 0.00 0.00 0.00 0.00 0.00 0.00 0.00 0.00 0.00 0.00 0.00 0.01 0.01 0.00 0.00 0.00 0.00 0.01 0.01 0.01 0.00 0.00 0.00 0.00 0.00
0.00 0.00 0.00 0.00 0.00 0.00 0.00 0.04 0.05 0.02 0.03 0.04 0.02 0.00 0.00 0.00 0.00 0.00 0.00 0.00 0.00 0.00 0.00 0.00 0.00 0.00 0.00 0.00 0.00 0.00 0.01 0.01 0.00 0.00 0.00 0.00 0.01 0.00 0.00 0.00 0.00 0.00 0.01
0.00 0.00 0.00 0.00 0.00 0.00 0.00 0.01 0.05 0.04 0.02 0.05 0.02 0.00 0.00 0.00 0.00 0.00 0.00 0.00 0.00 0.00 0.00 0.00 0.00 0.00 0.00 0.00 0.00 0.00 0.00 0.00 0.00 0.00 0.02 0.01 0.01 0.00 0.00 0.01 0.02 0.02 0.01
0.00 0.00 0.00 0.00 0.00 0.00 0.00 0.01 0.03 0.04 0.02 0.01 0.02 0.00 0.00 0.00 0.00 0.00 0.00 0.00 0.00 0.00 0.00 0.00 0.00 0.00 0.00 0.00 0.00 0.00 0.00 0.00 0.00 0.00 0.01 0.02 0.02 0.02 0.00 0.01 0.01 0.00 0.00
0.00 0.00 0.00 0.00 0.00 0.00 0.00 0.00 0.02 0.03 0.03 0.02 0.01 0.00 0.00 0.00 0.00 0.00 0.00 0.00 0.00 0.00 0.00 0.00 0.00 0.00 0.00 0.00 0.00 0.00 0.00 0.00 0.00 0.00 0.00 0.00 0.00 0.02 0.01 0.00 0.00 0.00 0.00
0.00 0.00 0.00 0.00 0.00 0.00 0.00 0.00 0.02 0.03 0.02 0.02 0.00 0.00 0.00 0.00 0.00 0.00 0.00 0.00 0.00 0.00 0.00 0.00 0.00 0.00 0.00 0.00 0.00 0.00 0.00 0.00 0.01 0.00 0.00 0.00 0.00 0.00 0.00 0.00 0.00 0.00 0.00
0.00 0.00 0.00 0.00 0.00 0.00 0.00 0.00 0.01 0.01 0.01 0.01 0.00 0.00 0.00 0.00 0.00 0.00 0.00 0.00 0.00 0.00 0.00 0.00 0.00 0.00 0.00 0.00 0.00 0.00 0.00 0.00 0.00 0.01 0.00 0.00 0.00 0.00 0.00 0.00 0.00 0.00 0.00
0.00 0.00 0.00 0.00 0.00 0.00 0.00 0.00 0.00 0.01 0.01 0.01 0.00 0.00 0.00 0.00 0.00 0.00 0.00 0.00 0.00 0.00 0.00 0.00 0.00 0.00 0.00 0.00 0.00 0.00 0.00 0.00 0.00 0.01 0.01 0.00 0.01 0.00 0.01 0.01 0.00 0.00 0.00
0.00 0.00 0.00 0.00 0.00 0.00 0.00 0.00 0.00 0.00 0.01 0.00 0.00 0.00 0.00 0.00 0.00 0.00 0.00 0.00 0.00 0.00 0.00 0.00 0.00 0.00 0.00 0.00 0.00 0.00 0.00 0.00 0.00 0.00 0.02 0.01 0.01 0.00 0.01 0.01 0.01 0.00 0.00
0.00 0.00 0.00 0.00 0.00 0.00 0.00 0.00 0.00 0.00 0.01 0.00 0.00 0.00 0.00 0.00 0.00 0.00 0.00 0.00 0.00 0.00 0.00 0.00 0.00 0.00 0.00 0.00 0.00 0.00 0.00 0.00 0.00 0.00 0.00 0.01 0.00 0.00 0.00 0.01 0.00 0.00 0.00
0.00 0.00 0.00 0.00 0.00 0.00 0.00 0.00 0.00 0.00 0.01 0.01 0.00 0.00 0.00 0.00 0.00 0.00 0.00 0.00 0.00 0.00 0.00 0.00 0.00 0.00 0.00 0.00 0.00 0.00 0.00 0.00 0.00 0.00 0.00 0.00 0.00 0.00 0.00 0.00 0.00 0.00 0.00
0.01 0.00 0.00 0.00 0.00 0.00 0.00 0.00 0.00 0.00 0.01 0.01 0.01 0.00 0.00 0.00 0.00 0.00 0.00 0.00 0.00 0.00 0.00 0.00 0.00 0.00 0.00 0.00 0.00 0.00 0.00 0.00 0.00 0.00 0.00 0.00 0.00 0.00 0.00 0.00 0.00 0.00 0.00
0.00 0.00 0.00 0.00 0.00 0.00 0.00 0.00 0.01 0.01 0.01 0.02 0.01 0.00 0.00 0.00 0.00 0.00 0.00 0.00 0.00 0.00 0.00 0.00 0.00 0.00 0.00 0.00 0.00 0.00 0.00 0.00 0.00 0.00 0.00 0.00 0.00 0.00 0.00 0.00 0.00 0.00 0.00
0.00 0.00 0.00 0.00 0.00 0.00 0.00 0.00 0.02 0.03 0.01 0.01 0.01 0.00 0.00 0.00 0.00 0.00 0.00 0.00 0.00 0.00 0.00 0.00 0.00 0.00 0.00 0.00 0.00 0.00 0.00 0.00 0.00 0.00 0.00 0.00 0.00 0.00 0.00 0.01 0.00 0.00 0.00
0.00 0.00 0.00 0.00 0.00 0.00 0.00 0.01 0.01 0.03 0.02 0.01 0.01 0.00 0.00 0.00 0.00 0.00 0.00 0.00 0.00 0.00 0.00 0.00 0.00 0.00 0.00 0.00 0.00 0.00 0.00 0.00 0.00 0.00 0.00 0.00 0.00 0.00 0.00 0.00 0.00 0.00 0.00
0.00 0.00 0.00 0.00 0.00 0.00 0.00 0.01 0.01 0.01 0.01 0.01 0.01 0.00 0.00 0.00 0.00 0.00 0.00 0.00 0.00 0.00 0.00 0.00 0.00 0.00 0.00 0.00 0.00 0.00 0.00 0.00 0.00 0.00 0.00 0.00 0.00 0.00 0.00 0.00 0.00 0.00 0.00
0.00 0.00 0.00 0.00 0.00 0.00 0.00 0.01 0.01 0.01 0.00 0.01 0.01 0.00 0.00 0.00 0.00 0.00 0.00 0.00 0.00 0.00 0.00 0.00 0.00 0.00 0.00 0.00 0.00 0.00 0.00 0.00 0.00 0.00 0.00 0.00 0.00 0.00 0.00 0.00 0.00 0.00 0.00
0.00 0.00 0.00 0.00 0.00 0.00 0.01 0.01 0.02 0.01 0.00 0.00 0.00 0.00 0.00 0.00 0.00 0.00 0.00 0.00 0.00 0.00 0.00 0.00 0.00 0.00 0.00 0.00 0.00 0.00 0.00 0.00 0.00 0.00 0.00 0.00 0.00 0.00 0.00 0.00 0.00 0.00 0.00
0.00 0.00 0.00 0.00 0.00 0.00 0.00 0.01 0.01 0.02 0.02 0.01 0.01 0.00 0.00 0.00 0.00 0.00 0.00 0.00 0.00 0.00 0.00 0.00 0.00 0.00 0.00 0.00 0.00 0.00 0.00 0.00 0.00 0.00 0.00 0.00 0.00 0.00 0.00 0.00 0.00 0.00 0.00
0.00 0.00 0.00 0.00 0.00 0.00 0.00 0.00 0.01 0.01 0.03 0.02 0.02 0.01 0.00 0.00 0.00 0.00 0.00 0.00 0.00 0.00 0.00 0.00 0.00 0.00 0.00 0.00 0.00 0.00 0.00 0.00 0.00 0.00 0.00 0.00 0.00 0.00 0.00 0.00 0.00 0.00 0.00
0.00 0.00 0.00 0.00 0.00 0.00 0.00 0.00 0.00 0.01 0.01 0.01 0.00 0.00 0.00 0.00 0.00 0.00 0.00 0.00 0.00 0.00 0.00 0.00 0.00 0.00 0.00 0.00 0.00 0.00 0.00 0.00 0.00 0.00 0.00 0.00 0.00 0.00 0.00 0.00 0.00 0.00 0.00
MSLP
1018.00 1017.72 1017.41 1017.13 1016.44 1015.74 1014.34 1013.84 1014.39 1014.85 1015.61 1015.79 1015.53 1015.94 1015.72 1015.83 1015.94 1016.47 1017.45 1017.94 1018.10 1018.20 1018.55 1019.07 1019.14 1019.27 1019.48 1019.70 1019.79 1019.97 1020.14 1020.41 1020.49 1020.60 1020.69 1020.69 1020.62 1020.46 1020.28 1020.35 1020.41 1020.30 1020.24
1018.24 1017.97 1017.68 1017.34 1016.86 1016.22 1015.40 1014.14 1014.03 1013.86 1014.93 1015.52 1015.12 1015.25 1015.34 1015.71 1015.77 1016.50 1017.42 1018.13 1018.30 1018.29 1018.55 1018.94 1019.26 1019.39 1019.52 1019.90 1020.01 1020.06 1020.30 1020.63 1020.83 1020.94 1021.02 1021.03 1021.06 1020.97 1020.79 1020.81 1020.89 1020.84 1020.72
1018.32 1018.03 1017.88 1017.52 1017.23 1016.62 1015.97 1014.26 1014.09 1013.97 1013.67 1015.43 1014.81 1014.77 1014.79 1015.43 1015.59 1016.29 1017.05 1017.96 1018.41 1018.48 1018.64 1018.84 1019.20 1019.54 1019.67 1019.88 1020.19 1020.27 1020.34 1020.70 1021.07 1021.22 1021.33 1021.39 1021.41 1021.38 1021.32 1021.33 1021.32 1021.32 1021.27
1018.25 1017.94 1017.61 1017.45 1017.00 1016.76 1016.19 1015.35 1014.02 1013.84 1013.67 1015.27 1014.37 1014.69 1014.58 1015.12 1015.44 1015.90 1016.36 1017.06 1017.95 1018.42 1018.49 1018.71 1019.07 1019.43 1019.66 1019.82 1020.14 1020.35 1020.41 1020.80 1021.13 1021.41 1021.60 1021.66 1021.65 1021.58 1021.65 1021.78 1021.76 1021.73 1021.77
1018.35 1018.11 1017.68 1017.48 1017.29 1016.93 1016.38 1015.73 1013.63 1013.41 1013.98 1013.94 1015.20 1014.46 1014.37 1014.96 1015.40 1015.41 1016.22 1016.53 1017.38 1017.95 1018.02 1018.57 1019.05 1019.29 1019.68 1019.71 1019.85 1020.33 1020.48 1020.71 1021.06 1021.43 1021.76 1021.84 1021.88 1021.86 1022.06 1022.13 1022.10 1022.06 1022.15
1018.13 1017.94 1017.65 1017.34 1017.22 1016.78 1016.29 1015.87 1014.20 1012.76 1013.54 1013.87 1014.20 1014.13 1014.23 1014.73 1015.28 1015.37 1015.81 1016.47 1016.97 1017.61 1017.92 1018.30 1018.67 1019.24 1019.49 1019.68 1019.79 1020.19 1020.61 1020.76 1020.95 1021.36 1021.72 1021.97 1022.01 1022.16 1022.24 1022.32 1022.39 1022.36 1022.43
1018.39 1017.81 1017.38 1017.24 1017.09 1016.59 1016.12 1015.51 1014.55 1012.20 1012.66 1013.23 1013.99 1014.99 1014.51 1014.69 1015.12 1015.43 1015.41 1015.94 1016.58 1017.41 1017.94 1018.27 1018.43 1019.05 1019.42 1019.68 1019.86 1019.91 1020.45 1020.84 1020.88 1021.29 1021.63 1022.03 1022.13 1022.30 1022.42 1022.46 1022.54 1022.57 1022.69
1018.00 1017.61 1017.10 1016.70 1016.37 1016.27 1015.89 1015.37 1015.13 1013.22 1011.50 1012.37 1012.55 1014.52 1015.08 1015.54 1015.17 1015.28 1015.60 1015.70 1016.37 1017.22 1017.56 1018.14 1018.38 1018.52 1018.95 1019.31 1019.87 1019.87 1020.32 1020.76 1020.84 1021.20 1021.48 1021.90 1022.20 1022.40 1022.58 1022.64 1022.66 1022.66 1022.93
1017.74 1017.50 1017.05 1016.48 1016.23 1016.04 1015.59 1015.28 1014.81 1013.45 1010.61 1011.19 1011.92 1011.52 1014.33 1014.63 1015.30 1015.75 1015.49 1015.53 1016.00 1016.89 1017.14 1017.49 1018.03 1018.23 1018.41 1018.67 1019.58 1020.01 1020.21 1020.61 1020.79 1021.10 1021.24 1021.74 1022.12 1022.39 1022.63 1022.76 1022.91 1023.06 1023.21
1017.42 1017.15 1016.75 1016.36 1015.80 1015.38 1014.89 1014.45 1013.70 1013.08 1010.52 1009.78 1010.92 1011.12 1011.31 1012.80 1014.25 1015.70 1015.96 1015.46 1015.68 1016.31 1016.70 1016.87 1017.31 1017.85 1018.20 1018.24 1019.17 1019.76 1020.13 1020.58 1020.77 1021.02 1021.26 1021.59 1022.13 1022.39 1022.58 1022.89 1022.99 1023.31 1023.50
1016.63 1016.28 1015.89 1015.41 1014.84 1014.48 1014.08 1013.56 1013.12 1012.38 1011.70 1008.90 1009.04 1009.83 1010.98 1011.79 1012.92 1014.13 1015.02 1015.14 1015.54 1015.91 1016.27 1016.48 1016.77 1017.24 1018.10 1018.09 1018.75 1019.32 1019.82 1020.28 1020.72 1020.89 1021.08 1021.40 1021.80 1022.33 1022.50 1022.78 1023.24 1023.46 1023.70
1015.85 1015.46 1015.09 1014.63 1014.00 1013.41 1012.94 1012.73 1012.39 1012.30 1010.72 1008.89 1007.64 1008.55 1009.29 1010.08 1011.48 1012.52 1013.50 1014.26 1014.94 1015.60 1015.81 1016.04 1016.36 1016.72 1017.59 1017.99 1018.18 1018.89 1019.49 1019.97 1020.38 1020.76 1020.68 1021.10 1021.55 1021.93 1022.38 1022.65 1023.04 1023.44 1023.81
1015.33 1014.73 1014.47 1013.91 1013.26 1012.59 1012.00 1011.62 1010.82 1010.42 1010.37 1008.41 1005.91 1006.69 1007.42 1008.28 1009.88 1010.16 1012.11 1013.41 1014.46 1015.64 1015.98 1016.04 1015.77 1016.11 1016.75 1017.67 1017.90 1018.50 1019.15 1019.61 1020.27 1020.50 1020.57 1020.94 1021.31 1021.69 1022.16 1022.50 1022.91 1023.35 1023.72
1014.67 1014.20 1013.75 1013.22 1012.51 1012.08 1011.36 1011.00 1010.44 1009.80 1009.79 1008.54 1003.93 1005.20 1006.04 1007.06 1008.17 1008.60 1010.04 1011.73 1013.85 1014.79 1015.25 1015.19 1015.32 1015.42 1016.14 1016.95 1017.50 1018.21 1018.77 1019.21 1019.82 1020.23 1020.52 1020.65 1021.07 1021.52 1022.00 1022.38 1022.71 1023.22 1023.54
1013.63 1013.11 1012.68 1012.16 1011.52 1011.00 1010.55 1010.14 1009.24 1006.62 1006.40 1006.66 1003.54 1003.55 1004.65 1005.73 1006.89 1007.55 1008.72 1010.09 1010.83 1013.18 1014.03 1014.21 1014.55 1014.92 1015.50 1016.11 1016.89 1017.82 1018.09 1018.86 1019.30 1019.86 1020.24 1020.43 1020.72 1021.29 1021.74 1022.10 1022.58 1023.06 1023.40
1012.47 1011.83 1011.24 1010.72 1010.01 1009.55 1008.85 1008.43 1007.95 1007.14 1005.77 1005.05 1003.21 1002.02 1003.65 1004.71 1005.82 1007.05 1007.83 1009.22 1009.76 1010.92 1012.39 1013.09 1013.46 1013.94 1014.74 1015.39 1016.28 1016.97 1017.57 1018.23 1018.80 1019.34 1019.85 1020.15 1020.49 1020.91 1021.43 1021.80 1022.34 1022.71 1023.15
1011.10 1010.33 1009.64 1009.01 1008.38 1008.04 1007.86 1007.02 1004.86 1004.04 1004.37 1003.44 1000.48 1001.20 1002.64 1003.87 1005.06 1006.31 1007.03 1008.19 1008.94 1009.81 1010.73 1012.15 1012.78 1013.34 1014.23 1014.90 1015.66 1016.32 1016.90 1017.57 1018.22 1018.82 1019.35 1019.78 1020.18 1020.64 1021.10 1021.42 1021.86 1022.38 1022.83
1009.82 1009.00 1008.25 1007.49 1006.90 1006.25 1005.78 1005.75 1004.89 1004.51 1002.53 1003.05 999.41 1000.04 1001.63 1003.27 1004.43 1005.65 1006.47 1007.17 1008.05 1008.86 1009.65 1011.02 1011.93 1012.75 1013.58 1014.25 1014.96 1015.75 1016.19 1016.67 1017.33 1018.13 1018.78 1019.37 1019.76 1020.20 1020.65 1021.15 1021.47 1021.86 1022.29
1008.50 1007.29 1006.40 1005.77 1005.17 1004.62 1003.89 1002.57 1001.03 1000.69 1000.22 999.42 997.74 999.22 1000.51 1002.25 1003.63 1004.85 1005.54 1006.45 1007.48 1008.14 1009.04 1010.01 1011.02 1012.05 1012.89 1013.57 1014.47 1015.32 1015.88 1016.26 1016.71 1017.23 1018.21 1018.81 1019.31 1019.70 1020.12 1020.57 1020.96 1021.39 1021.81
1007.12 1005.79 1004.66 1003.73 1003.15 1002.65 1001.66 1000.91 1000.58 999.97 998.94 996.57 997.66 998.62 999.76 1001.07 1002.39 1003.42 1004.47 1005.57 1006.62 1007.51 1008.50 1009.46 1010.35 1011.25 1012.27 1012.79 1013.59 1014.40 1015.32 1015.61 1016.16 1016.52 1017.38 1017.90 1018.55 1019.01 1019.46 1019.94 1020.30 1020.73 1021.21
1006.84 1005.21 1003.72 1002.59 1000.65 999.54 999.38 999.57 999.77 997.29 994.01 994.78 996.67 997.94 998.95 1000.41 1001.35 1002.32 1003.61 1004.65 1005.61 1006.74 1007.56 1008.64 1009.72 1010.66 1011.64 1012.31 1012.96 1013.52 1014.44 1015.05 1015.65 1016.04 1016.54 1017.23 1017.90 1018.20 1018.74 1019.17 1019.51 1019.94 1020.39
1006.65 1005.35 1003.82 1002.07 999.95 998.54 997.53 997.47 995.55 994.01 994.41 995.21 996.38 997.27 998.38 999.99 1001.05 1001.90 1003.06 1003.47 1004.29 1005.41 1006.37 1007.39 1008.58 1009.46 1010.36 1011.23 1012.03 1012.60 1013.40 1014.20 1014.96 1015.12 1015.88 1016.38 1016.98 1017.15 1017.30 1017.78 1018.24 1018.74 1019.43
1006.35 1005.00 1003.54 1002.49 1001.94 1000.95 999.66 997.37 995.10 993.31 994.57 995.63 996.20 996.99 998.12 999.17 1000.32 1001.46 1002.75 1002.96 1003.89 1004.62 1005.08 1005.61 1007.06 1008.11 1009.34 1009.96 1011.12 1011.75 1012.35 1012.99 1013.28 1013.70 1014.97 1015.45 1015.87 1015.97 1016.00 1016.27 1016.79 1017.50 1018.23
1006.68 1005.50 1004.85 1003.76 1001.91 999.98 999.09 996.96 994.73 994.74 994.27 995.55 996.63 997.16 998.14 999.13 999.95 1001.15 1002.10 1002.81 1003.50 1004.20 1004.91 1005.26 1005.79 1006.99 1007.66 1008.66 1009.50 1009.97 1010.82 1011.55 1012.49 1013.02 1013.59 1014.12 1014.47 1014.63 1015.22 1015.23 1015.54 1016.14 1016.78
1007.99 1006.52 1005.46 1004.66 1002.89 1001.81 999.36 996.43 995.18 995.59 995.87 996.81 997.73 998.63 998.60 999.64 1000.22 1000.91 1001.62 1002.56 1003.31 1003.85 1004.41 1004.82 1005.58 1006.29 1007.01 1007.76 1008.65 1009.76 1010.57 1011.42 1012.03 1012.21 1012.88 1013.17 1013.76 1014.04 1014.37 1014.57 1014.62 1015.15 1015.78
1008.73 1007.86 1006.16 1003.70 1003.00 1002.14 1001.22 998.21 998.26 998.15 998.11 998.96 999.84 999.98 1000.65 1000.54 1000.64 1000.80 1001.35 1002.01 1002.71 1003.30 1003.96 1004.96 1005.58 1006.08 1006.78 1007.26 1007.92 1008.49 1009.14 1010.02 1010.90 1011.53 1011.56 1012.63 1013.12 1013.54 1013.72 1013.62 1013.98 1014.19 1014.80
Thickness
5624 5629 5634 5639 5644 5653 5671 5679 5678 5679 5677 5678 5686 5684 5689 5692 5696 5693 5690 5691 5692 5693 5691 5686 5687 5687 5684 5683 5684 5682 5679 5676 5674 5673 5672 5670 5670 5671 5672 5671 5668 5668 5668
5611 5618 5623 5627 5636 5641 5650 5668 5676 5681 5676 5673 5683 5683 5686 5687 5692 5691 5685 5684 5688 5690 5689 5686 5683 5684 5684 5681 5682 5682 5679 5675 5673 5671 5670 5669 5668 5668 5669 5668 5667 5666 5667
5598 5604 5610 5617 5621 5631 5639 5656 5664 5673 5679 5668 5680 5682 5684 5684 5687 5688 5684 5680 5681 5686 5686 5686 5682 5681 5681 5680 5679 5679 5679 5675 5671 5670 5668 5668 5667 5666 5666 5665 5665 5665 5664
5586 5593 5600 5606 5611 5617 5628 5639 5658 5665 5669 5656 5674 5677 5681 5679 5682 5684 5685 5682 5679 5682 5685 5684 5682 5678 5678 5680 5677 5678 5678 5675 5672 5669 5666 5666 5666 5666 5665 5663 5663 5663 5662
5569 5577 5584 5591 5596 5604 5615 5625 5650 5658 5653 5656 5654 5669 5677 5674 5675 5679 5679 5681 5677 5679 5684 5684 5680 5679 5676 5678 5679 5675 5677 5676 5673 5669 5666 5665 5665 5665 5663 5662 5662 5661 5660
5555 5560 5569 5576 5581 5592 5601 5611 5632 5650 5644 5644 5650 5657 5668 5668 5667 5672 5676 5676 5675 5675 5679 5680 5682 5678 5675 5675 5677 5674 5673 5674 5674 5670 5667 5664 5664 5663 5662 5662 5661 5660 5659
5533 5542 5552 5559 5564 5576 5586 5598 5614 5639 5638 5642 5634 5635 5650 5657 5658 5663 5670 5673 5674 5671 5672 5676 5679 5675 5674 5672 5674 5676 5671 5670 5673 5670 5667 5663 5663 5661 5661 5661 5661 5659 5658
5512 5520 5530 5543 5552 5558 5571 5584 5593 5615 5637 5632 5636 5621 5620 5632 5648 5658 5664 5670 5671 5667 5670 5671 5673 5674 5674 5672 5669 5674 5672 5668 5671 5670 5669 5665 5662 5660 5659 5659 5660 5660 5657
5486 5492 5503 5516 5528 5538 5552 5563 5579 5597 5628 5630 5628 5638 5613 5620 5635 5642 5656 5663 5667 5664 5667 5669 5669 5672 5674 5674 5668 5668 5669 5667 5667 5668 5669 5666 5662 5660 5658 5658 5657 5657 5656
5458 5464 5472 5485 5502 5517 5535 5546 5568 5584 5613 5624 5624 5629 5638 5635 5630 5628 5639 5654 5661 5661 5664 5667 5669 5668 5670 5673 5667 5665 5666 5664 5663 5665 5665 5665 5661 5659 5658 5656 5656 5654 5654
5423 5427 5439 5454 5475 5493 5514 5530 5548 5567 5583 5618 5628 5629 5628 5630 5634 5629 5628 5642 5650 5655 5659 5663 5666 5667 5664 5669 5667 5664 5664 5663 5660 5662 5663 5663 5661 5657 5657 5656 5653 5652 5651
5382 5388 5396 5412 5436 5460 5488 5511 5524 5546 5570 5602 5628 5626 5627 5628 5633 5634 5636 5642 5642 5644 5652 5657 5662 5665 5661 5664 5667 5664 5662 5661 5659 5658 5662 5661 5660 5658 5655 5654 5652 5650 5649
5346 5354 5359 5376 5400 5427 5457 5485 5512 5537 5552 5587 5624 5628 5633 5637 5635 5642 5636 5634 5634 5635 5640 5646 5655 5660 5660 5659 5664 5663 5660 5659 5656 5657 5659 5659 5658 5657 5654 5652 5651 5648 5647
5318 5322 5329 5345 5370 5395 5426 5457 5488 5521 5538 5568 5624 5625 5630 5633 5635 5641 5643 5637 5627 5629 5636 5646 5651 5657 5658 5657 5659 5659 5658 5658 5654 5654 5654 5657 5657 5655 5653 5651 5649 5647 5646
5297 5302 5309 5325 5348 5374 5405 5435 5473 5524 5547 5568 5612 5628 5631 5631 5631 5639 5642 5642 5643 5630 5633 5646 5651 5655 5654 5655 5655 5654 5657 5656 5654 5652 5652 5655 5656 5653 5652 5650 5647 5645 5644
5280 5286 5296 5313 5336 5363 5396 5427 5466 5500 5535 5564 5599 5628 5627 5625 5629 5631 5636 5638 5644 5640 5634 5642 5648 5653 5649 5650 5649 5652 5653 5654 5654 5651 5651 5652 5653 5652 5650 5649 5646 5644 5643
5271 5278 5290 5306 5331 5357 5386 5422 5475 5511 5534 5559 5610 5622 5621 5622 5623 5625 5629 5634 5639 5640 5640 5639 5643 5647 5645 5648 5649 5650 5651 5652 5652 5651 5649 5650 5650 5649 5648 5647 5645 5643 5641
5267 5274 5286 5306 5330 5360 5390 5429 5466 5493 5534 5549 5608 5618 5618 5615 5615 5617 5624 5630 5634 5638 5640 5636 5642 5643 5644 5646 5647 5645 5648 5651 5652 5651 5649 5647 5648 5647 5646 5645 5645 5643 5641
5270 5281 5296 5314 5338 5366 5401 5448 5489 5519 5542 5570 5608 5613 5614 5610 5611 5611 5617 5621 5625 5631 5634 5636 5639 5639 5640 5643 5641 5640 5642 5646 5648 5650 5646 5645 5646 5646 5645 5645 5644 5643 5641
5280 5293 5310 5329 5350 5378 5420 5461 5493 5518 5549 5591 5598 5607 5605 5608 5612 5615 5615 5617 5620 5622 5626 5629 5633 5635 5635 5640 5639 5637 5636 5643 5644 5646 5644 5644 5644 5644 5644 5644 5644 5642 5641
5285 5300 5318 5339 5374 5408 5441 5467 5490 5533 5589 5595 5596 5600 5604 5607 5610 5612 5611 5613 5615 5615 5621 5624 5625 5629 5629 5632 5635 5640 5637 5638 5638 5641 5641 5641 5640 5641 5644 5643 5644 5643 5641
5295 5306 5323 5349 5384 5424 5452 5479 5514 5559 5577 5584 5589 5597 5603 5599 5602 5605 5604 5612 5615 5616 5620 5623 5624 5628 5631 5633 5633 5636 5635 5634 5634 5641 5638 5639 5637 5643 5646 5646 5645 5643 5642
5313 5323 5339 5357 5379 5416 5450 5491 5531 5572 5575 5577 5585 5594 5598 5602 5601 5602 5598 5602 5602 5608 5617 5626 5626 5629 5627 5632 5629 5633 5634 5635 5639 5642 5632 5633 5635 5642 5646 5649 5647 5645 5643
5321 5331 5341 5358 5388 5417 5449 5490 5532 5547 5565 5572 5575 5583 5586 5589 5592 5592 5593 5594 5597 5602 5607 5617 5622 5622 5625 5626 5627 5632 5632 5633 5627 5629 5631 5635 5638 5645 5644 5647 5647 5646 5646
5318 5332 5349 5363 5386 5403 5443 5481 5503 5520 5533 5542 5550 5557 5570 5572 5576 5580 5584 5585 5588 5593 5598 5607 5611 5616 5620 5623 5623 5620 5621 5621 5622 5630 5631 5634 5634 5637 5640 5643 5646 5646 5645
5318 5328 5352 5378 5397 5415 5435 5469 5483 5493 5511 5519 5525 5537 5541 5551 5561 5568 5575 5577 5580 5585 5590 5590 5596 5602 5606 5610 5615 5619 5621 5621 5620 5620 5632 5628 5627 5629 5632 5642 5641 5643 5642